Snettisham Power House AK US NWS current weather conditions

sailwx.info

Wind from 099 at 7 knots gusting 8

Air temperature -0.1° C

Last reported at 2020-Apr-07 14:45 UTC.
Time now 2020-Apr-07 16:18 UTC

Location: N 58°09' W 133°44'.
View on Google Maps.

See reports from other nearby stations

  
Tides and Currents Weather Stations Pressure Air Temp Water Temp Dewpoint Dewpoint Depression Visibility Wind Speed Wind Dir Waves Ship Positions
date/time (UTC)wind fromknots sea level pressurealtimeterstation pressurevisibilityair tempwater tempwave heightnotes
2020-Apr-07 15:00 107 8 gusting 10 -0.1
2020-Apr-07 14:45 099 7 gusting 8 -0.1
2020-Apr-07 14:30 070 5 gusting 6 0.0
2020-Apr-07 14:15 087 2 gusting 3 -0.1
2020-Apr-07 14:00 0.2
2020-Apr-07 13:45 285 0 gusting 4 -0.1
2020-Apr-07 13:30 306 2 gusting 9 0.2
2020-Apr-07 13:15 252 7 gusting 7 0.6
2020-Apr-07 13:00 292 3 gusting 12 1.1
2020-Apr-07 12:45 197 8 gusting 13 0.8
2020-Apr-07 12:30 208 5 gusting 11 -0.1
2020-Apr-07 12:15 323 0.2
2020-Apr-07 12:00 279 2 gusting 6 0.6
2020-Apr-07 11:45 266 2 gusting 6 0.5
2020-Apr-07 11:30 258 3 gusting 8 0.4
2020-Apr-07 11:15 217 2 gusting 8 0.3
2020-Apr-07 11:00 269 2 gusting 8 0.5
2020-Apr-07 10:45 264 4 gusting 9 0.7
2020-Apr-07 10:30 226 7 gusting 8 0.3
2020-Apr-07 10:15 253 5 gusting 9 0.3
2020-Apr-07 10:00 255 3 gusting 10 0.2
2020-Apr-07 09:45 260 5 gusting 19 0.3
2020-Apr-07 09:30 194 16 gusting 19 1.2
2020-Apr-07 09:15 215 10 gusting 12 1.5
2020-Apr-07 09:00 224 7 gusting 9 1.6
2020-Apr-07 08:45 273 8 gusting 11 1.6
2020-Apr-07 08:30 227 5 gusting 17 1.6
2020-Apr-07 08:15 240 9 gusting 14 1.7
2020-Apr-07 08:00 242 8 gusting 13 1.7
2020-Apr-07 07:45 212 3 gusting 16 1.9
2020-Apr-07 07:30 263 8 gusting 12 1.8
2020-Apr-07 07:15 233 4 gusting 12 1.7
2020-Apr-07 07:00 242 2 gusting 17 1.7
2020-Apr-07 06:45 264 4 gusting 15 1.7
2020-Apr-07 06:30 209 9 gusting 18 1.7
2020-Apr-07 06:15 229 8 gusting 13 1.7
2020-Apr-07 05:45 210 12 gusting 15 1.4
2020-Apr-07 05:30 224 9 gusting 9 0.2
2020-Apr-07 05:15 070 1 gusting 4 -0.0
2020-Apr-07 05:00 205 4 gusting 8 -0.2
2020-Apr-07 04:45 121 0 gusting 6 -0.0
2020-Apr-07 04:30 210 2 gusting 11 0.5
2020-Apr-07 04:15 1.1
2020-Apr-07 04:00 308 12 gusting 18 0.4
2020-Apr-07 03:45 266 6 gusting 13 0.8
2020-Apr-07 03:30 241 5 gusting 15 1.3
2020-Apr-07 03:15 253 8 gusting 18 0.9
2020-Apr-07 03:00 0.7
2020-Apr-07 02:45 1.2
2020-Apr-07 02:30 1.6
2020-Apr-07 02:15 324 12 gusting 22 2.1
2020-Apr-07 02:00 273 8 gusting 18 3.3
2020-Apr-07 01:45 266 8 gusting 15 3.3
2020-Apr-07 01:30 255 8 gusting 13 2.9
2020-Apr-07 01:15 252 7 gusting 20 2.9
2020-Apr-07 01:00 234 3 gusting 7 2.8
2020-Apr-07 00:45 2.4
2020-Apr-07 00:30 354 5 gusting 10 2.1
2020-Apr-07 00:15 031 7 gusting 9 2.2
2020-Apr-07 00:00 124 2 gusting 7 1.1
2020-Apr-06 23:45 197 3 gusting 5 1.2
2020-Apr-06 23:30 275 2 gusting 8 1.1
2020-Apr-06 23:15 318 4 gusting 15 1.2
2020-Apr-06 23:00 269 8 gusting 17 1.2
2020-Apr-06 22:45 350 11 gusting 17 2.1
2020-Apr-06 22:30 300 13 gusting 31 4.8
2020-Apr-06 22:15 258 9 gusting 27 5.5
2020-Apr-06 22:00 259 9 gusting 27 5.5
2020-Apr-06 21:45 236 11 gusting 20 5.2
2020-Apr-06 21:30 253 8 gusting 19 4.6
2020-Apr-06 21:15 249 12 gusting 21 4.7
2020-Apr-06 21:00 212 15 gusting 24 4.4
2020-Apr-06 20:45 213 11 gusting 28 4.5
2020-Apr-06 20:30 257 6 gusting 11 4.3
2020-Apr-06 20:15 230 4 gusting 13 3.9
2020-Apr-06 20:00 251 7 gusting 13 3.8
2020-Apr-06 19:45 260 3 gusting 26 4.1
2020-Apr-06 19:30 206 19 gusting 22 4.0
2020-Apr-06 19:15 237 9 gusting 27 3.8
2020-Apr-06 19:00 211 17 gusting 24 4.0
2020-Apr-06 18:45 255 13 gusting 21 3.9
2020-Apr-06 18:30 276 5 gusting 16 3.9
2020-Apr-06 18:15 211 5 gusting 17 3.9
2020-Apr-06 18:00 223 6 gusting 14 4.1
2020-Apr-06 17:45 250 7 gusting 15 4.1
2020-Apr-06 17:30 262 5 gusting 10 4.0
2020-Apr-06 17:15 279 2 gusting 14 4.1
2020-Apr-06 16:45 231 8 gusting 15 3.8
2020-Apr-06 16:30 226 6 gusting 11 3.9
2020-Apr-06 16:15 267 10 gusting 14 3.9
2020-Apr-06 16:00 3.9
2020-Apr-06 15:45 209 11 gusting 17 3.8
2020-Apr-06 15:30 244 11 gusting 15 4.0
2020-Apr-06 15:15 253 8 gusting 19 3.2
2020-Apr-06 15:00 229 11 gusting 11 2.6
2020-Apr-06 14:45 234 10 gusting 12 3.5
2020-Apr-06 14:30 249 11 gusting 14 3.5
2020-Apr-06 14:15 254 8 gusting 17 3.6
2020-Apr-06 14:00 285 7 gusting 20 3.8
2020-Apr-06 13:45 232 7 gusting 15 3.7
2020-Apr-06 13:30 273 10 gusting 16 3.6
2020-Apr-06 13:15 243 13 gusting 16 3.5
2020-Apr-06 13:00 229 13 gusting 18 3.3
2020-Apr-06 12:45 267 11 gusting 18 3.4
2020-Apr-06 12:30 247 10 gusting 17 3.4
2020-Apr-06 12:15 281 11 gusting 17 3.7
2020-Apr-06 12:00 276 10 gusting 18 3.6
2020-Apr-06 11:45 258 9 gusting 16 3.5
2020-Apr-06 11:30 219 13 gusting 19 3.6
2020-Apr-06 11:15 218 17 gusting 23 3.8
2020-Apr-06 11:00 212 14 gusting 21 2.1
2020-Apr-06 10:45 247 7 gusting 13 1.0
2020-Apr-06 10:30 0.8
2020-Apr-06 10:15 094 3 gusting 4 0.8
2020-Apr-06 10:00 302 0.7
2020-Apr-06 09:45 351 0 gusting 5 0.7
2020-Apr-06 09:30 062 3 gusting 4 0.8
2020-Apr-06 09:15 0.8
2020-Apr-06 09:00 100 6 gusting 9 0.8
2020-Apr-06 08:45 0.8
2020-Apr-06 08:30 093 5 gusting 6 0.9
2020-Apr-06 08:15 059 2 gusting 4 0.9
2020-Apr-06 08:00 313 1 gusting 2 1.1
2020-Apr-06 07:45 033 1 gusting 3 0.9
2020-Apr-06 07:30 0.8
2020-Apr-06 07:15 348 0 gusting 2 0.8
2020-Apr-06 07:00 342 0 gusting 2 0.9
2020-Apr-06 06:45 1.2
2020-Apr-06 06:30 1.3
2020-Apr-06 06:15 1.2
2020-Apr-06 06:00 1.3
2020-Apr-06 05:45 1.3
2020-Apr-06 05:30 1.3
2020-Apr-06 05:15 1.4
2020-Apr-06 05:00 1.6
2020-Apr-06 04:45 1.8
2020-Apr-06 04:30 1.9
2020-Apr-06 04:15 1.9
2020-Apr-06 04:00 2.2
2020-Apr-06 03:45 2.5
2020-Apr-06 03:30 2.7
2020-Apr-06 03:15 3.1
2020-Apr-06 03:00 3.4
2020-Apr-06 02:45 3.6
2020-Apr-06 02:30 3.8
2020-Apr-06 02:15 3.9
2020-Apr-06 02:00 009 6 gusting 9 4.0
2020-Apr-06 01:45 4.1
2020-Apr-06 01:30 013 7 gusting 9 4.2
2020-Apr-06 01:15 012 8 gusting 10 4.4
2020-Apr-06 01:00 014 6 gusting 9 4.6
2020-Apr-06 00:30 033 8 gusting 9 4.7
2020-Apr-06 00:15 010 5 gusting 8 5.0
2020-Apr-06 00:00 017 4 gusting 7 5.3
2020-Apr-05 23:45 355 3 gusting 6 5.8
2020-Apr-05 23:30 327 6.7
2020-Apr-05 23:15 250 6.6
2020-Apr-05 23:00 190 1 gusting 3 5.3
2020-Apr-05 22:45 228 3 gusting 6 5.2
2020-Apr-05 22:30 275 6 gusting 8 5.1
2020-Apr-05 22:15 269 7 gusting 9 4.7
2020-Apr-05 22:00 203 5 gusting 6 5.5
2020-Apr-05 21:45 256 4 gusting 6 5.1
2020-Apr-05 21:30 241 5.3
2020-Apr-05 21:15 5.0
2020-Apr-05 21:00 182 3 gusting 4 4.9
2020-Apr-05 20:45 4.3
2020-Apr-05 20:30 194 3 gusting 3 4.4
2020-Apr-05 20:15 186 3 gusting 3 4.4
2020-Apr-05 20:00 166 2 gusting 3 3.4
2020-Apr-05 19:45 179 3 gusting 4 3.6
2020-Apr-05 19:30 178 2 gusting 2 3.5
2020-Apr-05 19:15 3.2
2020-Apr-05 19:00 158 1 gusting 1 1.9
2020-Apr-05 18:45 247 1 gusting 2 1.8
2020-Apr-05 18:30 197 1 gusting 2 1.5
2020-Apr-05 18:15 109 2 gusting 3 0.8
2020-Apr-05 18:00 080 1 gusting 4 0.3
2020-Apr-05 17:45 079 3 gusting 4 -0.8
2020-Apr-05 17:30 087 3 gusting 5 -0.8
2020-Apr-05 17:15 084 3 gusting 4 -1.5
2020-Apr-05 17:00 127 1 gusting 2 -2.6
2020-Apr-05 16:45 051 1 gusting 4 -3.1
2020-Apr-05 16:30 096 2 gusting 3 -3.7
2020-Apr-05 16:15 093 -4.5
2020-Apr-05 16:00 199 1 gusting 4 -5.5